SV4FFB-13 Weather Reports


time (UTC)temp
C
wind
direction
speed
KPH
gust
KPH
rain 1hr
cm
rain 24hr
cm
rain mn
cm
humidity
%
barometer
mb
20260507155336 21 0.0 0.0 0.00 0.00 0.00 10 1017.9
20260507154336 22 0.0 0.0 0.00 0.00 0.00 10 1017.9
20260507153336 22 0.0 0.0 0.00 0.00 0.00 10 1017.9
20260507152336 23 0.0 0.0 0.00 0.00 0.00 10 1017.3
20260507151337 22 0.0 0.0 0.00 0.00 0.00 10 1017.7
20260507150336 25 0.0 0.0 0.00 0.00 0.00 10 1017.1
20260507145337 25 0.0 0.0 0.00 0.00 0.00 10 1017.4
20260507144336 25 0.0 0.0 0.00 0.00 0.00 10 1017.7
20260507143336 25 0.0 0.0 0.00 0.00 0.00 10 1017.3
20260507142336 24 0.0 0.0 0.00 0.00 0.00 10 1017.7
20260507141336 27 0.0 0.0 0.00 0.00 0.00 10 1017.2
20260507140336 27 0.0 0.0 0.00 0.00 0.00 10 1017.0
20260507135336 26 0.0 0.0 0.00 0.00 0.00 10 1017.3
20260507134336 25 0.0 0.0 0.00 0.00 0.00 10 1017.6
20260507133336 26 0.0 0.0 0.00 0.00 0.00 10 1017.3
20260507132336 29 0.0 0.0 0.00 0.00 0.00 10 1017.0
20260507131337 28 0.0 0.0 0.00 0.00 0.00 10 1016.9
20260507130336 28 0.0 0.0 0.00 0.00 0.00 10 1017.3
20260507125336 26 0.0 0.0 0.00 0.00 0.00 10 1017.7
20260507124336 24 0.0 0.0 0.00 0.00 0.00 10 1018.1
20260507123336 25 0.0 0.0 0.00 0.00 0.00 10 1017.9
20260507122336 26 0.0 0.0 0.00 0.00 0.00 10 1017.9
20260507121336 23 0.0 0.0 0.00 0.00 0.00 10 1018.3
20260507120336 23 0.0 0.0 0.00 0.00 0.00 10 1018.5
20260507115336 26 0.0 0.0 0.00 0.00 0.00 10 1018.2
20260507114336 24 0.0 0.0 0.00 0.00 0.00 10 1018.6
20260507113336 23 0.0 0.0 0.00 0.00 0.00 10 1018.9
20260507112336 23 0.0 0.0 0.00 0.00 0.00 10 1019.0
20260507111338 24 0.0 0.0 0.00 0.00 0.00 10 1018.8
20260507110336 24 0.0 0.0 0.00 0.00 0.00 10 1018.6
20260507105336 24 0.0 0.0 0.00 0.00 0.00 10 1018.6
20260507104336 22 0.0 0.0 0.00 0.00 0.00 10 1019.0
20260507103336 22 0.0 0.0 0.00 0.00 0.00 10 1018.9
20260507102336 22 0.0 0.0 0.00 0.00 0.00 10 1018.8
20260507101336 21 0.0 0.0 0.00 0.00 0.00 10 1018.8
20260507100336 21 0.0 0.0 0.00 0.00 0.00 10 1018.9
20260507095336 21 0.0 0.0 0.00 0.00 0.00 10 1018.9
20260507094336 21 0.0 0.0 0.00 0.00 0.00 10 1018.9
20260507093336 22 0.0 0.0 0.00 0.00 0.00 10 1018.6
20260507092336 22 0.0 0.0 0.00 0.00 0.00 10 1018.7
20260507091336 23 0.0 0.0 0.00 0.00 0.00 10 1018.5
20260507090336 23 0.0 0.0 0.00 0.00 0.00 10 1018.4
20260507085336 23 0.0 0.0 0.00 0.00 0.00 10 1018.3
20260507084336 22 0.0 0.0 0.00 0.00 0.00 10 1018.6
20260507083336 22 0.0 0.0 0.00 0.00 0.00 10 1018.9
20260507082336 21 0.0 0.0 0.00 0.00 0.00 10 1018.8
20260507081337 21 0.0 0.0 0.00 0.00 0.00 10 1018.9
20260507080336 22 0.0 0.0 0.00 0.00 0.00 10 1018.5
20260507075336 21 0.0 0.0 0.00 0.00 0.00 10 1018.5
20260507074336 21 0.0 0.0 0.00 0.00 0.00 10 1018.7
20260507073336 21 0.0 0.0 0.00 0.00 0.00 10 1018.5
20260507072336 20 0.0 0.0 0.00 0.00 0.00 10 1018.9
20260507071336 20 0.0 0.0 0.00 0.00 0.00 10 1018.9
20260507070336 20 0.0 0.0 0.00 0.00 0.00 10 1018.9
20260507065336 20 0.0 0.0 0.00 0.00 0.00 10 1019.0
20260507064336 20 0.0 0.0 0.00 0.00 0.00 10 1019.2
20260507063336 20 0.0 0.0 0.00 0.00 0.00 10 1019.0
20260507062337 20 0.0 0.0 0.00 0.00 0.00 10 1018.8
20260507061336 20 0.0 0.0 0.00 0.00 0.00 10 1018.7
20260507060336 19 0.0 0.0 0.00 0.00 0.00 10 1018.7
20260507055336 18 0.0 0.0 0.00 0.00 0.00 10 1018.5
20260507054336 18 0.0 0.0 0.00 0.00 0.00 10 1018.5
20260507053336 18 0.0 0.0 0.00 0.00 0.00 10 1019.4
20260507052336 17 0.0 0.0 0.00 0.00 0.00 10 1019.5
20260507051336 16 0.0 0.0 0.00 0.00 0.00 10 1019.3
20260507050336 16 0.0 0.0 0.00 0.00 0.00 10 1019.2
20260507045336 15 0.0 0.0 0.00 0.00 0.00 10 1019.2
20260507044337 15 0.0 0.0 0.00 0.00 0.00 10 1019.3
20260507043336 15 0.0 0.0 0.00 0.00 0.00 10 1018.9
20260507042336 14 0.0 0.0 0.00 0.00 0.00 10 1019.1
20260507041336 13 0.0 0.0 0.00 0.00 0.00 10 1019.3
20260507040336 13 0.0 0.0 0.00 0.00 0.00 10 1019.2
20260507035336 13 0.0 0.0 0.00 0.00 0.00 10 1019.3
20260507034336 13 0.0 0.0 0.00 0.00 0.00 10 1019.3
20260507033337 12 0.0 0.0 0.00 0.00 0.00 10 1019.3
20260507032336 12 0.0 0.0 0.00 0.00 0.00 10 1019.1
20260507031337 12 0.0 0.0 0.00 0.00 0.00 10 1019.0
20260507030336 12 0.0 0.0 0.00 0.00 0.00 10 1018.8
20260507025337 12 0.0 0.0 0.00 0.00 0.00 10 1018.7
20260507024336 12 0.0 0.0 0.00 0.00 0.00 10 1018.6
20260507023336 12 0.0 0.0 0.00 0.00 0.00 10 1018.4
20260507022337 12 0.0 0.0 0.00 0.00 0.00 10 1018.1
20260507021336 13 0.0 0.0 0.00 0.00 0.00 10 1017.7
20260507020337 13 0.0 0.0 0.00 0.00 0.00 10 1017.9
20260507015336 13 0.0 0.0 0.00 0.00 0.00 10 1017.8
20260507014337 13 0.0 0.0 0.00 0.00 0.00 10 1017.4
20260507013337 14 0.0 0.0 0.00 0.00 0.00 10 1017.3
20260507012337 13 0.0 0.0 0.00 0.00 0.00 10 1017.5
20260507011337 13 0.0 0.0 0.00 0.00 0.00 10 1017.4
20260507010338 13 0.0 0.0 0.00 0.00 0.00 10 1017.2
20260507005337 13 0.0 0.0 0.00 0.00 0.00 10 1017.1
20260507004336 13 0.0 0.0 0.00 0.00 0.00 10 1017.0
20260507003338 15 0.0 0.0 0.00 0.00 0.00 10 1017.0
20260507002337 14 0.0 0.0 0.00 0.00 0.00 10 1017.0
20260507001336 15 0.0 0.0 0.00 0.00 0.00 10 1016.9
20260507000337 14 0.0 0.0 0.00 0.00 0.00 10 1017.0
20260506235336 15 0.0 0.0 0.00 0.00 0.00 10 1016.6
20260506234337 16 0.0 0.0 0.00 0.00 0.00 10 1016.7
20260506233336 16 0.0 0.0 0.00 0.00 0.00 10 1016.9
20260506232337 16 0.0 0.0 0.00 0.00 0.00 10 1017.1
20260506231337 15 0.0 0.0 0.00 0.00 0.00 10 1017.3
20260506230337 15 0.0 0.0 0.00 0.00 0.00 10 1017.1
20260506225336 15 0.0 0.0 0.00 0.00 0.00 10 1016.9
20260506224336 17 0.0 0.0 0.00 0.00 0.00 10 1016.7
20260506223336 16 0.0 0.0 0.00 0.00 0.00 10 1017.0
20260506222336 15 0.0 0.0 0.00 0.00 0.00 10 1017.5
20260506221401 14 0.0 0.0 0.00 0.00 0.00 10 1017.6
20260506220336 15 0.0 0.0 0.00 0.00 0.00 10 1017.3
20260506215336 16 0.0 0.0 0.00 0.00 0.00 10 1017.1
20260506214336 15 0.0 0.0 0.00 0.00 0.00 10 1017.5
20260506213336 16 0.0 0.0 0.00 0.00 0.00 10 1017.0
20260506212336 16 0.0 0.0 0.00 0.00 0.00 10 1016.9
20260506211336 15 0.0 0.0 0.00 0.00 0.00 10 1017.2
20260506210336 15 0.0 0.0 0.00 0.00 0.00 10 1017.0
20260506205337 16 0.0 0.0 0.00 0.00 0.00 10 1016.8
20260506204336 16 0.0 0.0 0.00 0.00 0.00 10 1016.8
20260506203337 18 0.0 0.0 0.00 0.00 0.00 10 1016.5
20260506202338 17 0.0 0.0 0.00 0.00 0.00 10 1016.6
20260506201336 17 0.0 0.0 0.00 0.00 0.00 10 1016.4
20260506200336 18 0.0 0.0 0.00 0.00 0.00 10 1016.3
20260506195336 18 0.0 0.0 0.00 0.00 0.00 10 1016.1
20260506194336 18 0.0 0.0 0.00 0.00 0.00 10 1016.3
20260506193336 18 0.0 0.0 0.00 0.00 0.00 10 1016.2
20260506192337 18 0.0 0.0 0.00 0.00 0.00 10 1016.2
20260506191336 18 0.0 0.0 0.00 0.00 0.00 10 1016.2
20260506190336 18 0.0 0.0 0.00 0.00 0.00 10 1016.0
20260506185336 18 0.0 0.0 0.00 0.00 0.00 10 1015.9
20260506184336 18 0.0 0.0 0.00 0.00 0.00 10 1015.9
20260506183336 18 0.0 0.0 0.00 0.00 0.00 10 1015.8
20260506182336 17 0.0 0.0 0.00 0.00 0.00 10 1015.9
20260506181336 18 0.0 0.0 0.00 0.00 0.00 10 1015.7
20260506180336 18 0.0 0.0 0.00 0.00 0.00 10 1015.4
20260506175336 18 0.0 0.0 0.00 0.00 0.00 10 1015.4
20260506174336 18 0.0 0.0 0.00 0.00 0.00 10 1015.3
20260506173336 19 0.0 0.0 0.00 0.00 0.00 10 1015.1
20260506172336 19 0.0 0.0 0.00 0.00 0.00 10 1015.0
20260506171336 19 0.0 0.0 0.00 0.00 0.00 10 1014.8
20260506170336 19 0.0 0.0 0.00 0.00 0.00 10 1015.0
20260506165336 20 0.0 0.0 0.00 0.00 0.00 10 1015.0
20260506164336 20 0.0 0.0 0.00 0.00 0.00 10 1014.9
20260506163336 20 0.0 0.0 0.00 0.00 0.00 10 1015.0
20260506162336 21 0.0 0.0 0.00 0.00 0.00 10 1014.9
20260506161336 21 0.0 0.0 0.00 0.00 0.00 10 1014.7
20260506160336 22 0.0 0.0 0.00 0.00 0.00 10 1014.6